TimeCST,TemperatureF,Dew PointF,Humidity,Sea Level PressureIn,VisibilityMPH,Wind Direction,Wind SpeedMPH,Gust SpeedMPH,PrecipitationIn,Events,Conditions,WindDirDegrees,DateUTC
12:15 AM,39.2,33.8,81,30.25,10.0,NNE,3.5,-,N/A,,Clear,30,2013-01-07 06:15:00
12:35 AM,39.2,33.8,81,30.24,10.0,North,5.8,-,N/A,,Clear,10,2013-01-07 06:35:00
1:15 AM,39.2,33.8,81,30.26,10.0,North,3.5,-,N/A,,Clear,360,2013-01-07 07:15:00
1:35 AM,39.2,32.0,75,30.25,10.0,North,4.6,-,N/A,,Clear,350,2013-01-07 07:35:00
1:55 AM,37.4,30.2,75,30.25,10.0,NNE,3.5,-,N/A,,Clear,20,2013-01-07 07:55:00
2:15 AM,37.4,32.0,81,30.25,10.0,North,5.8,-,N/A,,Clear,10,2013-01-07 08:15:00
2:35 AM,37.4,30.2,75,30.23,10.0,North,9.2,-,N/A,,Clear,10,2013-01-07 08:35:00
2:55 AM,39.2,30.2,70,30.24,10.0,North,9.2,16.1,N/A,,Clear,10,2013-01-07 08:55:00
3:16 AM,39.2,30.2,70,30.23,10.0,NNE,11.5,-,N/A,,Clear,20,2013-01-07 09:16:00
3:35 AM,39.2,30.2,70,30.24,10.0,North,10.4,-,N/A,,Clear,10,2013-01-07 09:35:00
3:55 AM,37.4,30.2,75,30.23,10.0,North,11.5,-,N/A,,Clear,10,2013-01-07 09:55:00
4:15 AM,37.4,30.2,75,30.23,10.0,North,9.2,-,N/A,,Clear,10,2013-01-07 10:15:00
4:35 AM,37.4,30.2,75,30.23,10.0,NNE,9.2,-,N/A,,Clear,30,2013-01-07 10:35:00
4:55 AM,37.4,30.2,75,30.23,10.0,NNE,12.7,-,N/A,,Clear,20,2013-01-07 10:55:00
5:15 AM,37.4,28.4,70,30.23,10.0,NNE,11.5,-,N/A,,Clear,20,2013-01-07 11:15:00
5:35 AM,37.4,28.4,70,30.24,10.0,NNE,12.7,-,N/A,,Clear,20,2013-01-07 11:35:00
5:55 AM,37.4,28.4,70,30.25,10.0,NNE,13.8,-,N/A,,Clear,20,2013-01-07 11:55:00
6:15 AM,35.6,28.4,75,30.26,10.0,North,12.7,-,N/A,,Clear,10,2013-01-07 12:15:00
6:35 AM,35.6,28.4,75,30.27,10.0,NNE,8.1,-,N/A,,Clear,20,2013-01-07 12:35:00
6:55 AM,35.6,28.4,75,30.27,10.0,North,10.4,-,N/A,,Clear,10,2013-01-07 12:55:00
7:15 AM,35.6,28.4,75,30.28,10.0,North,8.1,-,N/A,,Clear,10,2013-01-07 13:15:00
7:35 AM,37.4,28.4,70,30.29,10.0,NNE,5.8,-,N/A,,Clear,20,2013-01-07 13:35:00
7:55 AM,37.4,30.2,75,30.30,10.0,NNE,8.1,-,N/A,,Clear,30,2013-01-07 13:55:00
8:15 AM,39.2,30.2,70,30.31,10.0,NE,5.8,-,N/A,,Clear,50,2013-01-07 14:15:00
8:35 AM,42.8,30.2,61,30.32,10.0,NE,11.5,-,N/A,,Clear,40,2013-01-07 14:35:00
8:55 AM,42.8,30.2,61,30.33,10.0,NE,8.1,-,N/A,,Clear,50,2013-01-07 14:55:00
9:15 AM,44.6,30.2,57,30.33,10.0,ENE,6.9,-,N/A,,Clear,70,2013-01-07 15:15:00
9:35 AM,46.4,30.2,53,30.33,10.0,NE,10.4,-,N/A,,Clear,50,2013-01-07 15:35:00
9:55 AM,46.4,30.2,53,30.33,10.0,East,8.1,-,N/A,,Clear,80,2013-01-07 15:55:00
10:15 AM,48.2,30.2,50,30.32,10.0,ENE,10.4,-,N/A,,Clear,60,2013-01-07 16:15:00
10:35 AM,50.0,28.4,43,30.32,10.0,East,12.7,19.6,N/A,,Clear,100,2013-01-07 16:35:00
10:55 AM,51.8,28.4,41,30.31,10.0,SE,10.4,-,N/A,,Clear,140,2013-01-07 16:55:00
11:15 AM,51.8,28.4,41,30.30,10.0,ESE,9.2,-,N/A,,Clear,120,2013-01-07 17:15:00
11:35 AM,51.8,30.2,44,30.30,10.0,East,5.8,-,N/A,,Clear,100,2013-01-07 17:35:00
11:55 AM,51.8,28.4,41,30.28,10.0,ESE,5.8,17.3,N/A,,Clear,110,2013-01-07 17:55:00
12:15 PM,53.6,28.4,38,30.27,10.0,SSE,3.5,-,N/A,,Clear,150,2013-01-07 18:15:00
12:35 PM,53.6,30.2,41,30.26,10.0,SSE,9.2,-,N/A,,Clear,150,2013-01-07 18:35:00
1:15 PM,55.4,30.2,38,30.26,10.0,SSE,10.4,-,N/A,,Clear,150,2013-01-07 19:15:00
1:35 PM,55.4,30.2,38,30.26,10.0,SE,8.1,-,N/A,,Clear,140,2013-01-07 19:35:00
1:55 PM,55.4,30.2,38,30.26,10.0,ESE,5.8,-,N/A,,Clear,110,2013-01-07 19:55:00
2:15 PM,53.6,28.4,38,30.26,10.0,SE,6.9,-,N/A,,Clear,130,2013-01-07 20:15:00
2:36 PM,55.4,28.4,36,30.26,10.0,SSE,6.9,-,N/A,,Clear,160,2013-01-07 20:36:00
2:55 PM,55.4,28.4,36,30.26,10.0,ESE,4.6,-,N/A,,Clear,110,2013-01-07 20:55:00
3:15 PM,55.4,26.6,33,30.27,10.0,ESE,6.9,-,N/A,,Clear,110,2013-01-07 21:15:00
3:35 PM,55.4,28.4,36,30.26,10.0,East,11.5,16.1,N/A,,Clear,90,2013-01-07 21:35:00
3:55 PM,55.4,28.4,36,30.26,10.0,East,6.9,-,N/A,,Clear,90,2013-01-07 21:55:00
4:15 PM,53.6,26.6,35,30.26,10.0,East,5.8,-,N/A,,Clear,100,2013-01-07 22:15:00
4:35 PM,53.6,26.6,35,30.26,10.0,East,5.8,-,N/A,,Clear,80,2013-01-07 22:35:00
5:15 PM,48.2,28.4,46,30.27,10.0,East,3.5,-,N/A,,Clear,90,2013-01-07 23:15:00
5:35 PM,48.2,28.4,46,30.27,10.0,East,3.5,-,N/A,,Clear,90,2013-01-07 23:35:00
5:55 PM,48.2,28.4,46,30.27,10.0,East,3.5,-,N/A,,Clear,90,2013-01-07 23:55:00
6:15 PM,46.4,28.4,50,30.27,10.0,East,4.6,-,N/A,,Clear,90,2013-01-08 00:15:00
6:35 PM,46.4,28.4,50,30.27,10.0,East,6.9,-,N/A,,Clear,90,2013-01-08 00:35:00
6:55 PM,46.4,28.4,50,30.27,10.0,East,6.9,-,N/A,,Clear,80,2013-01-08 00:55:00
7:15 PM,46.4,28.4,50,30.28,10.0,East,6.9,-,N/A,,Clear,80,2013-01-08 01:15:00
7:35 PM,46.4,28.4,50,30.28,10.0,ENE,6.9,-,N/A,,Clear,70,2013-01-08 01:35:00
7:55 PM,46.4,28.4,50,30.27,10.0,East,8.1,-,N/A,,Clear,80,2013-01-08 01:55:00
8:15 PM,46.4,28.4,50,30.27,10.0,ENE,6.9,-,N/A,,Clear,70,2013-01-08 02:15:00
8:35 PM,44.6,28.4,53,30.27,10.0,ENE,8.1,-,N/A,,Clear,70,2013-01-08 02:35:00
8:55 PM,44.6,28.4,53,30.28,10.0,ENE,8.1,-,N/A,,Clear,70,2013-01-08 02:55:00
9:35 PM,46.4,28.4,50,30.28,10.0,East,9.2,-,N/A,,Clear,100,2013-01-08 03:35:00
9:55 PM,46.4,28.4,50,30.27,10.0,East,10.4,-,N/A,,Clear,100,2013-01-08 03:55:00
10:15 PM,44.6,28.4,53,30.27,10.0,East,8.1,-,N/A,,Clear,100,2013-01-08 04:15:00
10:35 PM,44.6,28.4,53,30.28,10.0,East,6.9,-,N/A,,Clear,100,2013-01-08 04:35:00
10:55 PM,44.6,28.4,53,30.28,10.0,East,6.9,-,N/A,,Clear,100,2013-01-08 04:55:00
11:15 PM,44.6,28.4,53,30.27,10.0,East,8.1,-,N/A,,Partly Cloudy,100,2013-01-08 05:15:00
11:35 PM,44.6,28.4,53,30.26,10.0,ESE,6.9,-,N/A,,Scattered Clouds,110,2013-01-08 05:35:00
11:55 PM,44.6,28.4,53,30.25,10.0,East,9.2,-,N/A,,Partly Cloudy,100,2013-01-08 05:55:00